Location: Haliburton Scout Reserve
(45.0900°N, 78.3200°W)
Time: 23:56:39
(UTC-04:00)

SR - Visible Passes

Search period start: 22 September 2023 00:00
Search period end: 02 October 2023 00:00
Orbit: 573 x 872 km, 66.7° (Epoch: 22 September)

Date Brightness Start Highest point End Pass type
(mag) Time Alt. Az. Time Alt. Az. Time Alt. Az.
22 Sep ? 05:20:42 10° ESE 05:22:20 12° E 05:23:59 10° E visible
23 Sep ? 06:07:42 10° S 06:12:13 43° ESE 06:17:09 10° NE visible
24 Sep ? 05:17:47 10° SSE 05:21:22 21° ESE 05:25:13 10° ENE visible
25 Sep ? 06:06:45 10° SSW 06:11:34 76° ESE 06:16:52 10° NE visible
26 Sep ? 05:16:08 10° S 05:20:32 37° ESE 05:25:21 10° NE visible
27 Sep ? 04:26:38 11° SSE 04:29:44 18° ESE 04:33:13 10° ENE visible
27 Sep ? 06:06:13 10° SW 06:11:03 65° NW 06:16:25 10° NNE visible
28 Sep ? 05:16:51 23° SSW 05:19:50 66° ESE 05:25:07 10° NE visible
29 Sep ? 04:27:36 28° SE 04:28:51 32° ESE 04:33:30 10° NE visible
29 Sep ? 06:06:56 15° WSW 06:10:42 40° NW 06:15:48 10° NNE visible
30 Sep ? 03:38:16 16° E 03:38:16 16° E 03:41:07 10° ENE visible
30 Sep ? 05:17:36 42° SW 05:19:17 74° NW 05:24:41 10° NNE visible
01 Oct ? 04:28:11 56° ESE 04:28:11 56° ESE 04:33:19 10° NE visible
01 Oct ? 06:07:30 16° W 06:10:28 27° NW 06:15:05 10° NNE visible
